Location: Bothwell
(42.3833°S, 147.0000°E)
Time: 22:27:39
(UTC+11:00)

CUTE-I - Pass Details

Date: 30 September 2022
Orbit: 810 x 823 km, 98.7° (Epoch: 30 November)

Event Time Altitude Azimuth Distance (km) Brightness Sun altitude
Rises 04:42:31 0° 43° (NE) 3,331 ? -12.7°
Reaches altitude 10° 04:45:03 10° 52° (NE) 2,409 ? -12.3°
Maximum altitude 04:49:44 32° 114° (ESE) 1,373 ? -11.5°
Drops below altitude 10° 04:54:30 10° 175° (S) 2,442 ? -10.6°
Sets 04:57:04 0° 184° (S) 3,384 ? -10.1°
